Regional Weather Roundup
Issued by NWS

Home | Current Version | Previous Version | Graphics & Text | Print | Product List | Glossary On
Versions: 1 2 3 4 5 6 7 8 9 10 11 12 13 14 15 16 17 18 19 20 21 22 23 24 25 26 27 28 29 30 31 32 33 34 35 36 37 38 39 40 41 42 43 44 45 46 47 48 49 50
000
ASUS43 KMPX 230501
RWRMN
WEATHER ROUNDUP FOR MINNESOTA
NATIONAL WEATHER SERVICE TWIN CITIES/CHANHASSEN MN
1200 AM CDT SAT AUG 23 2014


NOTE: "FAIR" INDICATES FEW OR NO CLOUDS BELOW 12,000 FEET WITH NO
SIGNIFICANT WEATHER AND/OR OBSTRUCTIONS TO VISIBILITY. N/A MEANS
CURRENT SKY AND/OR WEATHER CONDITIONS ARE NOT AVAILABLE.

MNZ060>063-068>070-230600-
   Twin Cities Metro

CITY           SKY/WX    TMP DP  RH WIND       PRES   REMARKS
TWIN CITIES    PTCLDY    71  68  90 N5        30.01S
ST PAUL        CLEAR     71  68  90 NE3       30.01S
CRYSTAL        CLEAR     69  65  86 N3        30.01S
BLAINE         CLEAR     70  68  94 CALM      30.02S
LAKEVILLE      PTCLDY    66  66 100 CALM      30.01F
EDEN PRAIRIE   PTCLDY    69  66  90 CALM      30.01R
SOUTH ST PAUL  CLEAR     73  68  86 CALM      30.01R
LAKE ELMO      FAIR      70  68  94 NE3       30.03R
$$
MNZ001>005-007-008-013>017-022>024-027-028-230600-
   Northwest Minnesota

CITY           SKY/WX    TMP DP  RH WIND       PRES   REMARKS
BEMIDJI          N/A     65  65  99 CALM      30.05S
HALLOCK        CLOUDY    64  61  88 N7        30.10F
ROSEAU         CLOUDY    64  61  88 N7        30.09S
WARROAD        MOCLDY    64  61  88 N7        30.10R
THIEF RVR FALL CLOUDY    66  64  94 N10       30.08R
CROOKSTON      CLOUDY    66  64  94 N9        30.08S
FOSSTON        CLOUDY    66  64  94 CALM      30.07R
DETROIT LAKES  CLOUDY    68  66  94 N3        30.07S
MOORHEAD       CLOUDY    68  68 100 N7        30.07S
PARK RAPIDS    PTCLDY    66  66 100 CALM      30.05S
MAHNOMEN       CLOUDY    66  66  98 N6        30.05S
$$
MNZ006-009>011-018-025>026-230600-
   North Central Minnesota

CITY           SKY/WX    TMP DP  RH WIND       PRES   REMARKS
BAUDETTE       CLEAR     64  63  96 NW3       30.08R
FLAG ISLAND    CLOUDY    68  64  88 NW8       30.08R
INTL FALLS     CLEAR     61  61 100 CALM      30.07R
WASKISH        CLOUDY    70  66  88 CALM      30.07S
BIG FORK       RAIN      70  66  88 CALM      30.07S
LONGVILLE      MOCLDY    68  68 100 SE3       30.05S
GRAND RAPIDS   CLOUDY    68  64  88 SE6       30.07R
CRANE LAKE     CLOUDY    61  61 100 CALM      30.10R
ORR            CLOUDY    66  63  88 CALM      30.05F
COOK           CLOUDY    66  64  94 CALM      30.08S
WALKER         FOG       63  63 100 CALM      30.05S VSB 1/2
$$
MNZ012-019>021-037-230600-
   Northeast Minnesota

CITY           SKY/WX    TMP DP  RH WIND       PRES   REMARKS
DULUTH         FOG       62  61  96 NE5       30.07S VSB 3/4
ELY            CLOUDY    66  63  88 CALM      30.08S
HIBBING        CLOUDY    66  63  90 SE6       30.07S
EVELETH        LGT RAIN  63  63 100 CALM      30.09F
DULUTH HARBOR  CLOUDY    63  61  94 NE3       30.06F
TWO HARBORS    CLOUDY    63  57  82 CALM      30.05F
SILVER BAY     CLEAR     63  63 100 CALM      30.05F
GRAND MARAIS     N/A     63  61  93 CALM      30.06R
G MARAIS ARPRT MOCLDY    61  57  88 CALM      30.11S
$$
MNZ029>031-032-039>041-046>048-054>057-064-230600-
   West Central Minnesota

CITY           SKY/WX    TMP DP  RH WIND       PRES   REMARKS
FERGUS FALLS   CLEAR     64  64 100 N3        30.05R
WHEATON        PTCLDY    64  63  94 NW3       30.07R
MORRIS         MOCLDY    72  70  94 NW5       30.03R
ALEXANDRIA     MOCLDY    72  68  87 NE3       30.06R
ELBOW LAKE     FAIR      67  66  96 N3        30.04S
WADENA         CLEAR     64  64 100 CALM      30.04F
GLENWOOD       MOCLDY    70  68  94 NE5       30.04S
APPLETON       MOCLDY    73  68  83 NE6       30.01R
BENSON         CLOUDY    73  70  88 E3        30.02S
ORTONVILLE     MOCLDY    70  66  88 N7        30.03S
MADISON        CLOUDY    73  72  94 N5        30.02S
WILLMAR        FAIR      73  68  83 E8        30.04S
$$
MNZ033>034-036-042>043-049>051-058-059-230600-
   Central Minnesota

CITY           SKY/WX    TMP DP  RH WIND       PRES   REMARKS
ST CLOUD       PTCLDY    70  67  90 E3        30.03R
SAUK CENTRE    FAIR      70  67  90 CALM      30.04S
PAYNESVILLE    MOCLDY    67  66  96 CALM      30.04R
AITKIN         PTCLDY    66  61  82 CALM      30.05S HAZE
PINE RIVER     CLOUDY    70  70 100 SE5       30.08R
BRAINERD       PTCLDY    67  66  97 CALM      30.05S
STAPLES        CLEAR     66  66 100 CALM      30.05R
LONG PRAIRIE   FAIR      68  66  94 CALM      30.05S
LITTLE FALLS   CLEAR     64  63  94 CALM      30.05R
LITCHFIELD     PTCLDY    72  72 100 CALM      30.03S
BUFFALO        PTCLDY    68  65  90 CALM      30.03S
MAPLE LAKE     PTCLDY    70  68  94 CALM      30.04R
$$
MNZ037-044-045-052-053-230600-
   East Central Minnesota

CITY           SKY/WX    TMP DP  RH WIND       PRES   REMARKS
PRINCETON      PTCLDY    70  66  88 NE5       30.04R
MORA           CLOUDY    64  63  94 CALM      30.06S
CAMBRIDGE      CLEAR     70  61  73 CALM      30.02S
RUSH CITY      CLOUDY    67  64  91 CALM      30.04S
MOOSE LAKE     CLOUDY    61  59  94 NE6       30.05S FOG
HINCKLEY       CLOUDY    64  63  94 N6        30.06R
CLOQUET        CLOUDY    63  61  94 E6        30.07F FOG
MCGREGOR       PTCLDY    63  61  94 E3        30.07S
$$
MNZ071>073-080-081-089-090-097-098-230600-
   Southwest Minnesota

CITY           SKY/WX    TMP DP  RH WIND       PRES   REMARKS
MONTEVIDEO     CLOUDY    72  72 100 E3        30.03R
GRANITE FALLS  CLOUDY    73  70  89 E3        30.02S
CANBY          CLOUDY    72  69  91 N3        30.03S
MARSHALL       CLOUDY    73  68  83 CALM      30.00S
REDWOOD FALLS  MOCLDY    73  70  90 NE5       29.99F
OLIVIA         MOCLDY    73  70  88 E6        30.01S
PIPESTONE      CLOUDY    73  70  88 CALM      30.01F
WINDOM         CLOUDY    70  68  94 E6        30.00F
WORTHINGTON      N/A     70  70 100 E5        30.02R
JACKSON        CLOUDY    70  66  88 NE7       30.00F
TRACY          CLOUDY    74  71  89 CALM      30.00F
SLAYTON        CLOUDY    72  69  91 CALM      30.02F
$$
MNZ065>067-074>077-082>085-091>093-230600-
   South Central Minnesota

CITY           SKY/WX    TMP DP  RH WIND       PRES   REMARKS
MANKATO        PTCLDY    72  64  78 E8        30.00F
NEW ULM        PTCLDY    72  70  94 E5        30.00F
ST JAMES       MOCLDY    70  66  88 E3        30.00F
FAIRMONT       CLOUDY    64  64 100 NE7       29.99F
GLENCOE        PTCLDY    70  66  88 CALM      30.01S
FARIBAULT      PTCLDY    72  64  78 CALM      30.02S
OWATONNA       MOCLDY    70  66  88 NE5       30.01F
WASECA         MOCLDY    72  66  83 NE6       30.03S
ALBERT LEA     CLOUDY    72  70  94 NE10      30.00S FOG
$$
MNZ078>079-086>088-094>096-230600-
   Southeast Minnesota

CITY           SKY/WX    TMP DP  RH WIND       PRES   REMARKS
ROCHESTER      MOCLDY    70  67  90 NE10      30.02F
RED WING       PTCLDY    70  68  94 CALM      30.00S
STANTON        PTCLDY    69  66  90 E5        30.00S
DODGE CENTER   MOCLDY    68  66  94 NE5       30.02F FOG
WINONA         PTCLDY    73  70  88 NW3       29.99S
AUSTIN         CLOUDY    70  68  94 NE7       30.00S FOG
PRESTON        MOCLDY    69  69 100 N7        30.01F
$$
ABBREVIATIONS USED IN REMARKS
   TC - TEMPERATURES IN CELSIUS
  WCI - WIND CHILL INDEX
   HX - HEAT INDEX
  VSB - VISIBILITY
$$


USA.gov is the U.S. government's official web portal to all federal, state and local government web resources and services.